Previsão horária em Kabala

Hoje, 19 Junho, Sábado

Tempo Temperatura Precipitação Vento Pressão Humidade
00:00 +21°C° 0 mm 0 m/s 724 mmHg 96%
01:00 +21°C° 0 mm 0 m/s 724 mmHg 97%
02:00 +21°C° 0 mm 0 m/s 723 mmHg 97%
03:00 +23°C° 0 mm 1 m/s 723 mmHg 98%
04:00 +23°C° 0 mm 1 m/s 723 mmHg 98%
05:00 +23°C° 0 mm 1 m/s 724 mmHg 99%
06:00 +24°C° 0 mm 2 m/s 724 mmHg 95%
07:00 +25°C° 0 mm 2 m/s 725 mmHg 92%
08:00 +26°C° 0 mm 2 m/s 725 mmHg 89%
09:00 +27°C° 0.1 mm 2 m/s 725 mmHg 83%
10:00 +28°C° 0.1 mm 2 m/s 725 mmHg 77%
11:00 +29°C° 0.1 mm 2 m/s 725 mmHg 71%
12:00 +30°C° 0 mm 2 m/s 725 mmHg 66%
13:00 +31°C° 0 mm 2 m/s 724 mmHg 62%
14:00 +32°C° 0 mm 2 m/s 724 mmHg 57%
15:00 +31°C° 0.4 mm 2 m/s 723 mmHg 65%
16:00 +29°C° 0.4 mm 2 m/s 723 mmHg 73%
17:00 +28°C° 0.4 mm 3 m/s 723 mmHg 80%
18:00 +27°C° 1.8 mm 2 m/s 723 mmHg 85%
19:00 +26°C° 1.8 mm 2 m/s 724 mmHg 89%
20:00 +25°C° 1.8 mm 2 m/s 725 mmHg 94%
21:00 +24°C° 9.1 mm 2 m/s 725 mmHg 95%
22:00 +24°C° 9.1 mm 2 m/s 725 mmHg 96%
23:00 +24°C° 9.1 mm 2 m/s 725 mmHg 98%

Amanhã, 20 Junho, Domingo

Tempo Temperatura Precipitação Vento Pressão Humidade
00:00 +24°C° 2.2 mm 1 m/s 724 mmHg 98%
01:00 +23°C° 2.2 mm 1 m/s 724 mmHg 98%
02:00 +23°C° 2.2 mm 1 m/s 724 mmHg 98%
03:00 +23°C° 1.1 mm 1 m/s 724 mmHg 98%
04:00 +23°C° 1.1 mm 1 m/s 724 mmHg 98%
05:00 +23°C° 1.1 mm 1 m/s 724 mmHg 98%
06:00 +23°C° 0 mm 1 m/s 724 mmHg 96%
07:00 +22°C° 0 mm 0 m/s 725 mmHg 94%
08:00 +22°C° 0 mm 0 m/s 725 mmHg 93%
09:00 +24°C° 0 mm 0 m/s 725 mmHg 83%
10:00 +28°C° 0 mm 1 m/s 725 mmHg 74%
11:00 +30°C° 0 mm 1 m/s 725 mmHg 65%
12:00 +31°C° 0.1 mm 1 m/s 724 mmHg 63%
13:00 +31°C° 0.1 mm 1 m/s 724 mmHg 62%
14:00 +32°C° 0.1 mm 1 m/s 723 mmHg 60%
15:00 +30°C° 1 mm 2 m/s 723 mmHg 70%
16:00 +28°C° 1 mm 2 m/s 723 mmHg 80%
17:00 +27°C° 1 mm 2 m/s 723 mmHg 90%
18:00 +26°C° 0.3 mm 2 m/s 723 mmHg 92%
19:00 +25°C° 0.3 mm 2 m/s 723 mmHg 94%
20:00 +24°C° 0.3 mm 2 m/s 724 mmHg 96%
21:00 +24°C° 1.8 mm 2 m/s 724 mmHg 97%
22:00 +24°C° 1.8 mm 1 m/s 725 mmHg 98%
23:00 +24°C° 1.8 mm 1 m/s 725 mmHg 98%

Depois de amanhã, 21 Junho, Segunda-feira

Tempo Temperatura Precipitação Vento Pressão Humidade
00:00 +24°C° 1.2 mm 1 m/s 725 mmHg 98%
01:00 +23°C° 1.2 mm 1 m/s 724 mmHg 98%
02:00 +23°C° 1.2 mm 1 m/s 724 mmHg 98%
03:00 +23°C° 0.2 mm 1 m/s 724 mmHg 98%
04:00 +23°C° 0.2 mm 1 m/s 724 mmHg 98%
05:00 +21°C° 0.2 mm 0 m/s 724 mmHg 98%
06:00 +22°C° 0 mm 0 m/s 725 mmHg 96%
07:00 +22°C° 0 mm 0 m/s 725 mmHg 93%
08:00 +23°C° 0 mm 0 m/s 725 mmHg 91%
09:00 +24°C° 0 mm 0 m/s 725 mmHg 84%
10:00 +28°C° 0 mm 1 m/s 725 mmHg 77%
11:00 +29°C° 0 mm 1 m/s 725 mmHg 70%
12:00 +30°C° 0 mm 1 m/s 725 mmHg 67%
13:00 +30°C° 0 mm 1 m/s 724 mmHg 64%
14:00 +31°C° 0 mm 2 m/s 723 mmHg 61%
15:00 +30°C° 0.3 mm 2 m/s 723 mmHg 69%
16:00 +29°C° 0.3 mm 2 m/s 723 mmHg 77%
17:00 +27°C° 0.3 mm 2 m/s 723 mmHg 85%
18:00 +26°C° 0.2 mm 2 m/s 723 mmHg 88%
19:00 +25°C° 0.2 mm 2 m/s 724 mmHg 91%
20:00 +24°C° 0.2 mm 3 m/s 724 mmHg 95%
21:00 +24°C° 0.3 mm 2 m/s 724 mmHg 95%
22:00 +24°C° 0.3 mm 2 m/s 724 mmHg 96%
23:00 +24°C° 0.3 mm 2 m/s 724 mmHg 97%

22 Junho, Terça-feira

Tempo Temperatura Precipitação Vento Pressão Humidade
00:00 +24°C° 0.2 mm 2 m/s 724 mmHg 97%
01:00 +23°C° 0.2 mm 1 m/s 724 mmHg 97%
02:00 +23°C° 0.2 mm 1 m/s 724 mmHg 98%
03:00 +23°C° 4.3 mm 1 m/s 724 mmHg 98%
04:00 +21°C° 4.3 mm 2 m/s 724 mmHg 97%
05:00 +21°C° 4.3 mm 3 m/s 725 mmHg 97%
06:00 +21°C° 1.9 mm 2 m/s 724 mmHg 97%
07:00 +21°C° 1.9 mm 2 m/s 724 mmHg 97%
08:00 +22°C° 1.9 mm 1 m/s 724 mmHg 96%
09:00 +23°C° 0 mm 1 m/s 724 mmHg 91%
10:00 +22°C° 0 mm 0 m/s 724 mmHg 87%
11:00 +23°C° 0 mm 0 m/s 724 mmHg 82%
12:00 +24°C° 0 mm 0 m/s 724 mmHg 78%
13:00 +25°C° 0 mm 0 m/s 723 mmHg 74%
14:00 +26°C° 0 mm 0 m/s 723 mmHg 70%
15:00 +26°C° 0 mm 0 m/s 723 mmHg 74%
16:00 +27°C° 0 mm 1 m/s 723 mmHg 79%
17:00 +27°C° 0 mm 1 m/s 723 mmHg 83%
18:00 +26°C° 0 mm 1 m/s 723 mmHg 86%
19:00 +25°C° 0 mm 1 m/s 723 mmHg 90%
20:00 +24°C° 0 mm 1 m/s 723 mmHg 94%
21:00 +24°C° 0 mm 1 m/s 723 mmHg 95%
22:00 +23°C° 0 mm 1 m/s 724 mmHg 96%
23:00 +23°C° 0 mm 1 m/s 724 mmHg 98%

23 Junho, Quarta-feira

Tempo Temperatura Precipitação Vento Pressão Humidade
00:00 +23°C° 0.3 mm 1 m/s 723 mmHg 98%
01:00 +23°C° 0.3 mm 1 m/s 723 mmHg 98%
02:00 +22°C° 0.3 mm 1 m/s 722 mmHg 98%
03:00 +22°C° 0.3 mm 1 m/s 722 mmHg 98%
04:00 +22°C° 0.3 mm 1 m/s 722 mmHg 98%
05:00 +22°C° 0.3 mm 1 m/s 722 mmHg 98%
06:00 +23°C° 0 mm 1 m/s 723 mmHg 94%
07:00 +24°C° 0 mm 1 m/s 723 mmHg 90%
08:00 +25°C° 0 mm 1 m/s 723 mmHg 86%
09:00 +27°C° 0 mm 1 m/s 723 mmHg 80%
10:00 +28°C° 0 mm 1 m/s 723 mmHg 73%
11:00 +30°C° 0 mm 2 m/s 723 mmHg 66%
12:00 +30°C° 0 mm 2 m/s 723 mmHg 65%
13:00 +31°C° 0 mm 2 m/s 722 mmHg 63%
14:00 +31°C° 0 mm 2 m/s 721 mmHg 62%
15:00 +30°C° 1.8 mm 2 m/s 721 mmHg 71%
16:00 +28°C° 1.8 mm 2 m/s 721 mmHg 81%
17:00 +26°C° 1.8 mm 2 m/s 721 mmHg 90%
18:00 +25°C° 6.4 mm 2 m/s 721 mmHg 92%
19:00 +23°C° 6.4 mm 2 m/s 722 mmHg 94%
20:00 +21°C° 6.4 mm 2 m/s 722 mmHg 96%
21:00 +22°C° 0.1 mm 1 m/s 722 mmHg 96%
22:00 +22°C° 0.1 mm 1 m/s 722 mmHg 97%
23:00 +20°C° 0.1 mm 0 m/s 723 mmHg 97%

24 Junho, Quinta-feira

Tempo Temperatura Precipitação Vento Pressão Humidade
00:00 +20°C° 0.2 mm 0 m/s 723 mmHg 97%
01:00 +20°C° 0.2 mm 0 m/s 723 mmHg 98%
02:00 +20°C° 0.2 mm 0 m/s 723 mmHg 98%
03:00 +22°C° 0 mm 1 m/s 723 mmHg 98%
04:00 +22°C° 0 mm 1 m/s 723 mmHg 98%
05:00 +22°C° 0 mm 1 m/s 723 mmHg 98%
06:00 +22°C° 0 mm 1 m/s 723 mmHg 97%
07:00 +22°C° 0 mm 1 m/s 723 mmHg 95%
08:00 +23°C° 0 mm 1 m/s 724 mmHg 94%
09:00 +23°C° 0 mm 0 m/s 724 mmHg 86%
10:00 +24°C° 0 mm 0 m/s 724 mmHg 79%
11:00 +26°C° 0 mm 0 m/s 724 mmHg 71%
12:00 +27°C° 0 mm 0 m/s 723 mmHg 71%
13:00 +29°C° 0 mm 1 m/s 723 mmHg 71%
14:00 +29°C° 0 mm 1 m/s 722 mmHg 70%
15:00 +28°C° 1.3 mm 1 m/s 722 mmHg 77%
16:00 +27°C° 1.3 mm 1 m/s 722 mmHg 85%
17:00 +26°C° 1.3 mm 1 m/s 722 mmHg 92%
18:00 +25°C° 2.1 mm 2 m/s 723 mmHg 93%
19:00 +24°C° 2.1 mm 2 m/s 723 mmHg 95%
20:00 +22°C° 2.1 mm 3 m/s 724 mmHg 97%
21:00 +23°C° 1.5 mm 2 m/s 724 mmHg 97%
22:00 +23°C° 1.5 mm 1 m/s 724 mmHg 98%
23:00 +23°C° 1.5 mm 1 m/s 724 mmHg 98%
Mostrar mais

Necessitamos do seu Consentimento

A Meteoprog e os seus Fornecedores de Serviços podem armazenar e aceder a dados pessoais como cookies, identificadores do dispositivo ou outras tecnologias semelhantes existentes no seu dispositivo e processar estes dados para personalizar conteúdos e anúncios, assim como funcionalidades nas redes sociais e análise de tráfego.

  • Armazenar e/ou aceder a informações no seu dispositivo

    Os cookies, identificadores do dispositivo ou outras informações podem ser armazenados ou acedidos no seu dispositivo, para os fins acima indicados.

  • Anúncios e conteúdos personalizados, medição de anúncios e conteúdos, dados sobre o público-alvo e desenvolvimento de produtos

    Os anúncios e os conteúdos podem ser personalizados com base num perfil. Podem ser adicionados dados adicionais para uma maior personalização dos anúncios e dos conteúdos. A eficácia dos anúncios e dos conteúdos pode ser medida. Podem ser obtidas informações sobre o público que visualizou os anúncios e os conteúdos. Estes dados podem ser usados para desenvolver ou melhorar sistemas, softwares ou a experiência do utilizador.

Ao clicar em "Eu concordo”, permitirá o uso de cookies, identificadores do dispositivo e web beacons mencionados ou outras tecnologias semelhantes. As configurações do navegador do seu dispositivo podem ser alteradas.

Para certos fins, podem ser invocados interesses legítimos ao invés de consentimento. Pode ler mais informação sobre este assunto na nossa Política de Privacidade e Cookies.